Printer-friendly version

IAU Minor Planet Center

Minor Planet Center

MPEC 2007-S49 : 2007 SG11

The following Minor Planet Electronic Circular may be linked-to from your own Web pages, but must not otherwise be redistributed electronically.


Read MPEC 2007-S48 Read MPEC 2007-S50


M.P.E.C. 2007-S49                                Issued 2007 Sept. 25, 11:46 UT

     The Minor Planet Electronic Circulars contain information on unusual
         minor planets and routine data on comets.  They are published
   on behalf of Commission 20 of the International Astronomical Union by the
          Minor Planet Center, Smithsonian Astrophysical Observatory,
                          Cambridge, MA 02138, U.S.A.

             Prepared using the Tamkin Foundation Computer Network

                              MPC@CFA.HARVARD.EDU
          URL http://www.cfa.harvard.edu/iau/mpc.html  ISSN 1523-6714

                                   2007 SG11

Observations:
     K07S11G* C2007 09 24.28233 00 46 30.03 +39 12 14.6          17.3   ES049704
     K07S11G  C2007 09 24.29440 00 46 21.91 +39 10 48.8          17.5   ES049704
     K07S11G  C2007 09 24.31870 00 46 05.54 +39 07 54.9          17.4   ES049704
     K07S11G  C2007 09 24.33058 00 45 57.51 +39 06 28.5          17.5   ES049704
     K07S11G EC2007 09 25.12156 00 37 57.29 +37 25 24.2                 ES049J95
     K07S11G  C2007 09 25.12383 00 37 55.80 +37 25 05.4          17.7 R ES049J95
     K07S11G  C2007 09 25.12896 00 37 52.41 +37 24 23.4                 ES049J95
     K07S11G  C2007 09 25.13008 00 37 51.69 +37 24 14.2          17.7 R ES049J95
     K07S11G 5C2007 09 25.17118 00 37 43.84 +37 19 08.8          17.5 R ES049673
     K07S11G 5C2007 09 25.17685 00 37 40.18 +37 18 26.4                 ES049673
     K07S11G 5C2007 09 25.18194 00 37 36.88 +37 17 48.6                 ES049673
     K07S11G 5C2007 09 25.18530 00 37 34.70 +37 17 23.4                 ES049673
     K07S11G  C2007 09 25.20181 00 37 19.89 +37 15 27.5                 ES049H36
     K07S11G  C2007 09 25.20554 00 37 17.40 +37 14 58.5          17.5 R ES049H36
     K07S11G  C2007 09 25.21654 00 37 09.98 +37 13 32.8                 ES049H36
     K07S11G  C2007 09 25.22042 00 37 07.28 +37 13 02.7          17.7 R ES049H36
     K07S11G  C2007 09 25.22416 00 37 04.79 +37 12 32.9                 ES049H36
     K07S11G  C2007 09 25.24835 00 36 51.73 +37 09 34.9          17.8 V ES049G96
     K07S11G  C2007 09 25.25358 00 36 48.16 +37 08 54.4          17.7 V ES049G96
     K07S11G  C2007 09 25.25887 00 36 44.56 +37 08 13.0          17.8 V ES049G96
     K07S11G  C2007 09 25.26411 00 36 40.96 +37 07 32.0          17.7 V ES049G96

Observer details:
673 Table Mountain Observatory, Wrightwood.  Observer J. Young.  0.61-m f/16
    Cassegrain + CCD.
704 Lincoln Laboratory ETS, New Mexico.  Observers M. Bezpalko, D. Torres,
    R. Kracke, G. Spitz, J. Kistler.  Measurers J. Stuart, S. Scruggs.  1.0-m
    f/2.15 reflector + CCD.
G96 Mt. Lemmon Survey.  Observer A. Boattini.  Measurers E. C. Beshore,
    A. Boattini, G. J. Garradd, A. R. Gibbs, A. D. Grauer, R. E. Hill,
    R. A. Kowalski, S. M. Larson, R. H. McNaught.  1.5-m reflector + CCD.
H36 Sandlot Observatory, Scranton.  Observer G. Hug.  0.30-m
    Schmidt-Cassegrain + CCD.
J95 Great Shefford.  Observer P. Birtwhistle.  0.40-m f/6.0 Schmidt-Cassegrain
    + CCD.

Orbital elements:
2007 SG11                                                Earth MOID = 0.0262 AU
Epoch 2007 Oct. 27.0 TT = JDT 2454400.5                 MPC
M 226.04589              (2000.0)            P               Q
n   1.29171944     Peri.  345.62627     -0.99951436     -0.01261194
a   0.8350079      Node   193.74628     +0.02029226     -0.95740492
e   0.2486373      Incl.    6.88741     -0.02364896     -0.28847316
P   0.76           H   22.7           G   0.15           U   7
Residuals in seconds of arc
070924 704  0.0   0.1+    070925 J95  0.1-  0.0     070925 H36  0.4+  0.3-
070924 704  0.0   0.2-    070925 673  0.1-  0.3+    070925 H36  0.5-  0.2-
070924 704  0.1+  0.2+    070925 673  0.1-  0.3+    070925 H36  0.1+  0.7-
070924 704  0.1-  0.1-    070925 673  0.1-  0.6+    070925 G96  0.1+  0.1-
070925 J95  0.2+  0.1+    070925 673  0.1-  0.5+    070925 G96  0.0   0.1+
070925 J95  0.2+  0.1-    070925 H36  0.0   0.0     070925 G96  0.2+  0.0
070925 J95  0.3-  0.0     070925 H36  0.3+  0.1-    070925 G96  0.1-  0.0

Ephemeris:
2007 SG11                a,e,i = 0.84, 0.25, 7                   q = 0.6274
Date    TT    R. A. (2000) Decl.     Delta      r     Elong.  Phase     V
2007 09 17    01 49.70   +48 46.0    0.0673   1.042   121.2    55.7    19.0
2007 09 27    00 18.76   +32 51.8    0.0454   1.041   148.5    30.2    17.4
2007 10 07    22 39.52   -02 45.5    0.0411   1.034   146.8    32.0    17.2
2007 10 17    21 33.31   -29 01.5    0.0584   1.020   112.4    64.6    18.9
2007 10 27    20 56.76   -40 20.1    0.0827   1.000    91.8    83.5    20.2
2007 11 06    20 32.77   -46 01.9    0.107    0.973    77.1    96.8    21.3

Timothy B. Spahr             (C) Copyright 2007 MPC           M.P.E.C. 2007-S49

Read MPEC 2007-S48 Read MPEC 2007-S50


Our Web policy. Index to the CBAT/MPC/ICQ pages.


Valid HTML 4.01!